Regional Weather Roundup
Issued by NWS

Home | Current Version | Previous Version | Text Only | Print | Product List | Glossary Off
Versions: 1 2 3 4 5 6 7 8 9 10 11 12 13 14 15 16 17 18 19 20 21 22 23 24 25 26 27 28 29 30 31 32 33 34 35 36 37 38 39 40 41 42 43 44 45 46 47 48 49 50

308
ASUS43 KDMX 091308
RWRIA

WEATHER ROUNDUP FOR IOWA
NATIONAL WEATHER SERVICE DES MOINES IA
700 AM CST TUE FEB 09 2016

NOTE: "FAIR" INDICATES FEW OR NO CLOUDS BELOW 12,000 FEET WITH NO
SIGNIFICANT WEATHER AND/OR OBSTRUCTIONS TO VISIBILITY.

* - THESE STATIONS ARE NOT NWS STATIONS...THUS NOT UNDER NWS
QUALITY CONTROL.  THEY ALSO DO NOT REPORT WEATHER SUCH
AS PRECIPITATION OR FOG.

IAZ001>003-012>014-020>022-031>034-043>046-091400-
   NORTHWEST IOWA

CITY           SKY/WX    TMP DP  RH WIND       PRES   REMARKS
CARROLL *      MOCLDY     5   1  85 NW20      30.13R WCI -15
CHEROKEE *     PTCLDY     5   1  85 N14G21    30.16S WCI -12
DENISON *      CLOUDY     7   1  78 N18       30.13R WCI -12
LE MARS *      CLEAR      9   3  78 NW14G23   30.21S WCI  -8
ORANGE CITY *  CLEAR      7   1  78 N9G17     30.17R WCI  -7
SHELDON *      PTCLDY     3   0  85 NW18      30.14S WCI -17
SIOUX CITY     PTCLDY    12   2  64 NW25G32   30.20R WCI  -8
SPENCER        CLOUDY     5  -1  76 N24       30.12S HAZE    WCI -17
STORM LAKE *   CLOUDY     5   1  85 NW17      30.12S WCI -14
$$

IAZ055>058-069>071-079>083-090>094-091400-
   SOUTHWEST IOWA

CITY           SKY/WX    TMP DP  RH WIND       PRES   REMARKS
ATLANTIC *     MOCLDY     9   1  72 N16       30.15R WCI  -9
AUDUBON *      CLEAR      7   1  78 N14G20    30.13R WCI -10
CLARINDA *     CLOUDY    12   5  73 N16G22    30.18R WCI  -4
COUNCIL BLFS * CLEAR     12   5  73 N14G26    30.17R WCI  -3
CRESTON *      CLOUDY     9   1  72 NW23G30   30.10R WCI -12
HARLAN  *      MOCLDY     9   1  72 N21G29    30.18R WCI -11
LAMONI         CLOUDY    12   4  70 N17G26    30.07R WCI  -5
RED OAK *      CLOUDY    10   5  79 N12       30.17R WCI  -4
SHENANDOAH *   MOCLDY    14   7  73 N10G18    30.18R WCI   1
$$

IAZ047>049-059>061-072>074-084-091400-
   CENTRAL IOWA

CITY           SKY/WX    TMP DP  RH WIND       PRES   REMARKS
AMES           CLOUDY     9   3  77 NW21G32   30.07R WCI -11
ANKENY *       CLOUDY    10   3  72 NW18G26   30.08R WCI  -8
BOONE *        CLOUDY     9   1  72 NW21G29   30.06R WCI -11
CHARITON *     CLOUDY    12   3  67 NW18G24   30.05R WCI  -5
DES MOINES     FLURRIES  11   3  70 NW16G25   30.09R WCI  -6
GRINNELL*      PTCLDY    10   7  85 NW18G30   30.02R WCI  -8
KNOXVILLE *    FLURRIES  12   3  67 NW23G31   30.03R WCI  -7
MARSHALLTOWN   CLOUDY     9   4  80 NW23      30.02R WCI -11
NEWTON *       FLURRIES  10   5  79 NW17G31   30.04R WCI  -7
PELLA *        MOCLDY    12   7  79 NW21      30.06R WCI  -6
$$

IAZ004>006-015-016-023>025-035-036-091400-
   NORTH CENTRAL IOWA

CITY           SKY/WX    TMP DP  RH WIND       PRES   REMARKS
ALGONA *       CLOUDY     7   1  78 NW22G30   30.07S WCI -14
CLARION *      CLOUDY     7   0  72 N22G31    30.06R WCI -14
ESTHERVILLE    CLOUDY     3   0  87 NW22G29   30.10R FOG     WCI -19
FORT DODGE *   CLOUDY     7  -2  66 NW12G26   30.10R WCI  -9
MASON CITY     CLOUDY     6   2  83 NW23      30.03R WCI -15
FOREST CITY *  CLEAR      7   1  78 NW20G28   30.04R WCI -13
WEBSTER CITY * CLOUDY     7   1  78 NW28      30.05R WCI -16
IOWA FALLS *     N/A      8   4  83 NW24G31   30.04R WCI -13
$$

IAZ007>011-017>019-026>030-037>042-050>054-066-091400-
   NORTHEAST IOWA

CITY           SKY/WX    TMP DP  RH WIND       PRES   REMARKS
CEDAR RAPIDS   LGT SNOW  12   8  84 N17       29.96R FOG     WCI  -5
CHARLES CITY * CLOUDY     9   3  78 NW20G25   30.00R WCI -11
CLINTON *      PTCLDY    11   5  77 NW14      29.91R WCI  -5
DECORAH *      CLOUDY     7   0  72 N15       29.94R WCI -11
DUBUQUE        CLOUDY     9   2  73 N20       29.89R WCI -10
MONTICELLO *   FLURRIES  12   5  73 NW21      29.93R WCI  -6
OELWEIN *      MOCLDY     9   1  72 NW16      29.97R WCI  -9
WATERLOO       CLOUDY    10   4  76 NW22      29.99S HAZE    WCI -10
$$

IAZ064-065-067-068-078-091400-
   EAST CENTRAL IOWA

CITY           SKY/WX    TMP DP  RH WIND       PRES   REMARKS
DAVENPORT      PTCLDY    11   3  70 NW15      29.92R WCI  -5
IOWA CITY      CLOUDY    13   6  74 NW13      29.99R WCI  -2
MT. PLEASANT * FLURRIES  18  10  73 NW16      29.97R WCI   3
MUSCATINE *    CLOUDY    14   7  73 NW15G23   29.97R WCI  -1
QUAD CITIES    MOCLDY    13   5  70 NW16      29.92R WCI  -3
$$

IAZ062-063-075>077-085>089-095>099-091400-
   SOUTHEAST IOWA

CITY           SKY/WX    TMP DP  RH WIND       PRES   REMARKS
BURLINGTON     LGT SNOW  15  10  80 NW12G20   29.94R WCI   2
FAIRFIELD *    FLURRIES  14   7  73 NW22G29   29.98R WCI  -4
FORT MADISON * FLURRIES  16   9  73 NW21G26   29.96R WCI  -2
KEOKUK *       FLURRIES  16  10  79 NW12G25   29.97R WCI   3
OSKALOOSA *    LGT SNOW  12   9  85 NW18G28   30.02R WCI  -5
CENTERVILLE *  CLOUDY    14   7  73 NW17G25   30.03S WCI  -3
OTTUMWA        FLURRIES  13   8  81 NW24      30.01R WCI  -7
WASHINGTON *   LGT SNOW  14   9  79 NW23G30   29.99R WCI  -5
$$

ABBREVIATIONS USED IN REMARKS
   TC - TEMPERATURES IN CELSIUS
  WCI - WIND CHILL INDEX
   HX - HEAT INDEX
  VSB - VISIBILITY
$$





USA.gov is the U.S. government's official web portal to all federal, state and local government web resources and services.